This is the latest recevied weather packets stored in our database for station/object G4MDP-13. If no packets are shown the sender has not sent any weather packets the latest 10 day(s).
| Time | Temp. | Humidity | Pressure | Rain* | Wind** | Luminosity | Snow |
|---|---|---|---|---|---|---|---|
| 1778034858 | 10.56° C | 73% | 1006 hPa | 0 mm | - | - | - |
| 1778033958 | 10.56° C | 74% | 1006 hPa | 0 mm | - | - | - |
| 1778033957 | 10.56° C | 74% | 1006 hPa | 0 mm | - | - | - |
| 1778033117 | 10.56° C | 77% | 1005.9 hPa | 0 mm | - | - | - |
| 1778033058 | 10.56° C | 77% | 1006 hPa | 0 mm | - | - | - |
| 1778032158 | 10.56° C | 76% | 1006 hPa | 0 mm | - | - | - |
| 1778032157 | 10.56° C | 76% | 1006 hPa | 0 mm | - | - | - |
| 1778031317 | 11.11° C | 78% | 1006 hPa | 0 mm | - | - | - |
| 1778031258 | 11.11° C | 78% | 1006 hPa | 0 mm | - | - | - |
| 1778030358 | 11.11° C | 78% | 1006 hPa | 0 mm | - | - | - |
| 1778030357 | 11.11° C | 78% | 1006 hPa | 0 mm | - | - | - |
| 1778029517 | 11.11° C | 77% | 1006.1 hPa | 0 mm | - | - | - |
| 1778029458 | 11.11° C | 77% | 1006.1 hPa | 0 mm | - | - | - |
| 1778028558 | 11.11° C | 76% | 1006.2 hPa | 0 mm | - | - | - |
| 1778028557 | 11.11° C | 76% | 1006.2 hPa | 0 mm | - | - | - |
| 1778027717 | 11.11° C | 75% | 1005.9 hPa | 0 mm | - | - | - |
| 1778027658 | 11.11° C | 75% | 1005.9 hPa | 0 mm | - | - | - |
| 1778026758 | 11.11° C | 75% | 1006.2 hPa | 0 mm | - | - | - |
| 1778026757 | 11.11° C | 75% | 1006.2 hPa | 0 mm | - | - | - |
| 1778025917 | 11.11° C | 75% | 1006.3 hPa | 0 mm | - | - | - |
| 1778025858 | 11.11° C | 75% | 1006.2 hPa | 0 mm | - | - | - |
| 1778024958 | 11.11° C | 74% | 1006 hPa | 0 mm | - | - | - |
| 1778024957 | 11.11° C | 74% | 1006 hPa | 0 mm | - | - | - |
| 1778024117 | 11.67° C | 71% | 1006 hPa | 0 mm | - | - | - |
| 1778024058 | 11.67° C | 71% | 1006 hPa | 0 mm | - | - | - |
* Rain latest hour (hover to see other rain measurements)
** Current wind speed in m/s (hover to see current wind gust speed)